| time (UTC) | temp F | wind direction | speed MPH | gust MPH | rain 1hr in | rain 24hr in | rain mn in | humidity % | barometer mb |
| 20260505013851 | 87 | 160 | 0.0 | 0.0 | 0.00 | 0.00 | 0.00 | 59 | 1003.0 |
| 20260505013351 | 86 | 175 | 0.0 | 0.0 | 0.00 | 0.00 | 0.00 | 60 | 1003.0 |
| 20260505012851 | 86 | 177 | 0.0 | 0.0 | 0.00 | 0.00 | 0.00 | 61 | 1003.0 |
| 20260505012350 | 85 | 189 | 0.0 | 0.0 | 0.00 | 0.00 | 0.00 | 62 | 1003.0 |
| 20260505011850 | 85 | 158 | 2.0 | 2.0 | 0.00 | 0.00 | 0.00 | 62 | 1003.0 |
| 20260505011350 | 85 | 182 | 1.0 | 1.0 | 0.00 | 0.00 | 0.00 | 63 | 1003.0 |
| 20260505010851 | 85 | 170 | 0.0 | 0.0 | 0.00 | 0.00 | 0.00 | 63 | 1003.0 |
| 20260505010350 | 85 | 179 | 0.0 | 0.0 | 0.00 | 0.00 | 0.00 | 63 | 1003.0 |
| 20260505005851 | 85 | 172 | 0.0 | 0.0 | 0.00 | 0.00 | 0.00 | 63 | 1003.0 |
| 20260505005351 | 85 | 172 | 0.0 | 0.0 | 0.00 | 0.00 | 0.00 | 63 | 1003.0 |
| 20260505004851 | 85 | 175 | 0.0 | 0.0 | 0.00 | 0.00 | 0.00 | 63 | 1003.0 |
| 20260505004350 | 84 | 173 | 1.0 | 1.0 | 0.00 | 0.00 | 0.00 | 64 | 1003.0 |
| 20260505003850 | 84 | 177 | 0.0 | 0.0 | 0.00 | 0.00 | 0.00 | 64 | 1002.0 |
| 20260505003351 | 84 | 178 | 1.0 | 1.0 | 0.00 | 0.00 | 0.00 | 64 | 1003.0 |
| 20260505002851 | 84 | 190 | 1.0 | 1.0 | 0.00 | 0.00 | 0.00 | 64 | 1002.0 |
| 20260505002351 | 84 | 184 | 0.0 | 0.0 | 0.00 | 0.00 | 0.00 | 64 | 1002.0 |
| 20260505001850 | 84 | 184 | 1.0 | 1.0 | 0.00 | 0.00 | 0.00 | 64 | 1003.0 |
| 20260505001350 | 84 | 190 | 0.0 | 0.0 | 0.00 | 0.00 | 0.00 | 64 | 1003.0 |
| 20260505000850 | 84 | 169 | 0.0 | 0.0 | 0.00 | 0.00 | 0.00 | 64 | 1003.0 |
| 20260505000351 | 84 | 193 | 1.0 | 1.0 | 0.00 | 0.00 | 0.00 | 65 | 1002.0 |
| 20260504235851 | 84 | 214 | 2.0 | 2.0 | 0.00 | 0.00 | 0.00 | 65 | 1003.0 |
| 20260504235350 | 84 | 153 | 0.0 | 0.0 | 0.00 | 0.00 | 0.00 | 65 | 1002.0 |
| 20260504234851 | 84 | 216 | 2.0 | 2.0 | 0.00 | 0.00 | 0.00 | 65 | 1003.0 |
| 20260504234351 | 84 | 215 | 0.0 | 1.0 | 0.00 | 0.00 | 0.00 | 66 | 1002.0 |
| 20260504233851 | 84 | 161 | 0.0 | 0.0 | 0.00 | 0.00 | 0.00 | 65 | 1002.0 |
| 20260504233351 | 84 | 174 | 1.0 | 1.0 | 0.00 | 0.00 | 0.00 | 66 | 1003.0 |
| 20260504232851 | 84 | 182 | 0.0 | 0.0 | 0.00 | 0.00 | 0.00 | 66 | 1002.0 |
| 20260504232351 | 84 | 284 | 3.0 | 3.0 | 0.00 | 0.00 | 0.00 | 66 | 1003.0 |
| 20260504231852 | 84 | 203 | 1.0 | 2.0 | 0.00 | 0.00 | 0.00 | 67 | 1003.0 |
| 20260504231351 | 84 | 216 | 2.0 | 3.0 | 0.00 | 0.00 | 0.00 | 67 | 1002.0 |
| 20260504230851 | 84 | 258 | 1.0 | 1.0 | 0.00 | 0.00 | 0.00 | 68 | 1002.0 |
| 20260504230351 | 84 | 213 | 1.0 | 2.0 | 0.00 | 0.00 | 0.00 | 68 | 1002.0 |
| 20260504225851 | 84 | 179 | 1.0 | 1.0 | 0.00 | 0.00 | 0.00 | 68 | 1002.0 |
| 20260504225353 | 84 | 217 | 2.0 | 3.0 | 0.00 | 0.00 | 0.00 | 68 | 1002.0 |
| 20260504224851 | 84 | 200 | 1.0 | 2.0 | 0.00 | 0.00 | 0.00 | 68 | 1002.0 |
| 20260504224350 | 84 | 252 | 2.0 | 2.0 | 0.00 | 0.00 | 0.00 | 68 | 1002.0 |
| 20260504223850 | 84 | 176 | 0.0 | 0.0 | 0.00 | 0.00 | 0.00 | 69 | 1002.0 |
| 20260504223351 | 84 | 162 | 0.0 | 0.0 | 0.00 | 0.00 | 0.00 | 69 | 1002.0 |
| 20260504222850 | 84 | 233 | 1.0 | 1.0 | 0.00 | 0.00 | 0.00 | 69 | 1002.0 |
| 20260504222350 | 84 | 210 | 3.0 | 3.0 | 0.00 | 0.00 | 0.00 | 69 | 1002.0 |
| 20260504221851 | 84 | 190 | 2.0 | 2.0 | 0.00 | 0.00 | 0.00 | 70 | 1002.0 |
| 20260504221352 | 83 | 205 | 1.0 | 1.0 | 0.00 | 0.00 | 0.00 | 70 | 1002.0 |
| 20260504220403 | 83 | 169 | 0.0 | 0.0 | 0.00 | 0.00 | 0.00 | 71 | 1002.0 |
| 20260504215850 | 83 | 167 | 0.0 | 1.0 | 0.00 | 0.00 | 0.00 | 71 | 1003.0 |
| 20260504215352 | 83 | 202 | 3.0 | 3.0 | 0.00 | 0.00 | 0.00 | 71 | 1003.0 |
| 20260504214853 | 83 | 314 | 1.0 | 2.0 | 0.00 | 0.00 | 0.00 | 72 | 1003.0 |
| 20260504214351 | 83 | 230 | 3.0 | 3.0 | 0.00 | 0.00 | 0.00 | 72 | 1003.0 |
| 20260504213851 | 83 | 227 | 0.0 | 1.0 | 0.00 | 0.00 | 0.00 | 72 | 1003.0 |
| 20260504213351 | 83 | 281 | 3.0 | 3.0 | 0.00 | 0.00 | 0.00 | 72 | 1003.0 |
| 20260504212851 | 83 | 226 | 1.0 | 2.0 | 0.00 | 0.00 | 0.00 | 73 | 1003.0 |
| 20260504212351 | 83 | 196 | 0.0 | 0.0 | 0.00 | 0.00 | 0.00 | 73 | 1003.0 |
| 20260504211852 | 83 | 203 | 5.0 | 7.0 | 0.00 | 0.00 | 0.00 | 72 | 1003.0 |
| 20260504211352 | 84 | 267 | 3.0 | 6.0 | 0.00 | 0.00 | 0.00 | 72 | 1003.0 |
| 20260504210851 | 83 | 245 | 1.0 | 2.0 | 0.00 | 0.00 | 0.00 | 72 | 1003.0 |
| 20260504210352 | 83 | 276 | 2.0 | 3.0 | 0.00 | 0.00 | 0.00 | 72 | 1003.0 |
| 20260504205851 | 83 | 284 | 3.0 | 5.0 | 0.00 | 0.00 | 0.00 | 72 | 1003.0 |
| 20260504205352 | 84 | 257 | 9.0 | 11.0 | 0.00 | 0.00 | 0.00 | 71 | 1003.0 |
| 20260504204851 | 84 | 297 | 3.0 | 5.0 | 0.00 | 0.00 | 0.00 | 71 | 1003.0 |
| 20260504204352 | 85 | 315 | 5.0 | 9.0 | 0.00 | 0.00 | 0.00 | 70 | 1003.0 |
| 20260504203852 | 85 | 154 | 0.0 | 0.0 | 0.00 | 0.00 | 0.00 | 70 | 1003.0 |
| 20260504203352 | 86 | 8 | 3.0 | 5.0 | 0.00 | 0.00 | 0.00 | 69 | 1003.0 |
| 20260504202853 | 86 | 260 | 0.0 | 1.0 | 0.00 | 0.00 | 0.00 | 69 | 1003.0 |
| 20260504202353 | 86 | 287 | 3.0 | 5.0 | 0.00 | 0.00 | 0.00 | 69 | 1003.0 |
| 20260504201851 | 86 | 323 | 3.0 | 5.0 | 0.00 | 0.00 | 0.00 | 70 | 1003.0 |
| 20260504201351 | 86 | 114 | 3.0 | 3.0 | 0.00 | 0.00 | 0.00 | 70 | 1003.0 |
| 20260504200851 | 86 | 267 | 1.0 | 2.0 | 0.00 | 0.00 | 0.00 | 70 | 1003.0 |
| 20260504200351 | 86 | 282 | 1.0 | 2.0 | 0.00 | 0.00 | 0.00 | 70 | 1002.0 |
| 20260504195854 | 86 | 182 | 2.0 | 2.0 | 0.00 | 0.00 | 0.00 | 70 | 1003.0 |
| 20260504195350 | 86 | 186 | 2.0 | 2.0 | 0.00 | 0.00 | 0.00 | 70 | 1003.0 |
| 20260504194850 | 86 | 245 | 4.0 | 5.0 | 0.00 | 0.00 | 0.00 | 69 | 1002.0 |
| 20260504194352 | 86 | 247 | 3.0 | 3.0 | 0.00 | 0.00 | 0.00 | 69 | 1003.0 |
| 20260504193850 | 86 | 185 | 0.0 | 1.0 | 0.00 | 0.00 | 0.00 | 69 | 1003.0 |
| 20260504193352 | 86 | 189 | 1.0 | 2.0 | 0.00 | 0.00 | 0.00 | 69 | 1003.0 |
| 20260504192851 | 86 | 157 | 3.0 | 5.0 | 0.00 | 0.00 | 0.00 | 69 | 1003.0 |
| 20260504192351 | 86 | 189 | 1.0 | 2.0 | 0.00 | 0.00 | 0.00 | 70 | 1003.0 |
| 20260504191854 | 86 | 175 | 4.0 | 5.0 | 0.00 | 0.00 | 0.00 | 70 | 1003.0 |
| 20260504191351 | 86 | 197 | 1.0 | 2.0 | 0.00 | 0.00 | 0.00 | 70 | 1003.0 |
| 20260504190850 | 86 | 198 | 1.0 | 2.0 | 0.00 | 0.00 | 0.00 | 70 | 1003.0 |
| 20260504190353 | 86 | 156 | 2.0 | 3.0 | 0.00 | 0.00 | 0.00 | 70 | 1003.0 |
| 20260504185851 | 86 | 215 | 3.0 | 3.0 | 0.00 | 0.00 | 0.00 | 69 | 1003.0 |
| 20260504185353 | 86 | 176 | 2.0 | 3.0 | 0.00 | 0.00 | 0.00 | 69 | 1003.0 |
| 20260504184850 | 86 | 166 | 2.0 | 3.0 | 0.00 | 0.00 | 0.00 | 69 | 1003.0 |
| 20260504184353 | 86 | 164 | 2.0 | 2.0 | 0.00 | 0.00 | 0.00 | 69 | 1003.0 |
| 20260504183851 | 86 | 188 | 1.0 | 2.0 | 0.00 | 0.00 | 0.00 | 69 | 1003.0 |
| 20260504183350 | 86 | 214 | 3.0 | 6.0 | 0.00 | 0.00 | 0.00 | 69 | 1003.0 |
| 20260504182851 | 86 | 209 | 4.0 | 5.0 | 0.00 | 0.00 | 0.00 | 69 | 1003.0 |
| 20260504182351 | 86 | 222 | 4.0 | 5.0 | 0.00 | 0.00 | 0.00 | 69 | 1003.0 |
| 20260504181852 | 86 | 242 | 2.0 | 2.0 | 0.00 | 0.00 | 0.00 | 69 | 1003.0 |
| 20260504181351 | 86 | 225 | 6.0 | 7.0 | 0.00 | 0.00 | 0.00 | 69 | 1003.0 |
| 20260504180853 | 87 | 209 | 4.0 | 6.0 | 0.00 | 0.00 | 0.00 | 69 | 1003.0 |
| 20260504180351 | 87 | 228 | 5.0 | 8.0 | 0.00 | 0.00 | 0.00 | 69 | 1003.0 |
| 20260504175851 | 87 | 214 | 5.0 | 9.0 | 0.00 | 0.00 | 0.00 | 69 | 1003.0 |
| 20260504175351 | 87 | 217 | 3.0 | 5.0 | 0.00 | 0.00 | 0.00 | 69 | 1003.0 |
| 20260504174851 | 87 | 256 | 5.0 | 7.0 | 0.00 | 0.00 | 0.00 | 70 | 1003.0 |
| 20260504174351 | 87 | 189 | 3.0 | 5.0 | 0.00 | 0.00 | 0.00 | 70 | 1003.0 |
| 20260504173851 | 87 | 285 | 2.0 | 3.0 | 0.00 | 0.00 | 0.00 | 71 | 1003.0 |
| 20260504173352 | 87 | 218 | 5.0 | 8.0 | 0.00 | 0.00 | 0.00 | 71 | 1003.0 |
| 20260504172852 | 87 | 188 | 5.0 | 6.0 | 0.00 | 0.00 | 0.00 | 71 | 1003.0 |
| 20260504172352 | 87 | 195 | 3.0 | 6.0 | 0.00 | 0.00 | 0.00 | 71 | 1003.0 |
| 20260504171851 | 87 | 196 | 5.0 | 8.0 | 0.00 | 0.00 | 0.00 | 71 | 1003.0 |
| 20260504171352 | 87 | 170 | 2.0 | 3.0 | 0.00 | 0.00 | 0.00 | 71 | 1003.0 |
| 20260504170853 | 87 | 219 | 7.0 | 8.0 | 0.00 | 0.00 | 0.00 | 70 | 1003.0 |
| 20260504170351 | 87 | 204 | 3.0 | 6.0 | 0.00 | 0.00 | 0.00 | 70 | 1003.0 |
| 20260504160351 | 87 | 174 | 7.0 | 8.0 | 0.00 | 0.00 | 0.00 | 78 | 1003.0 |
| 20260504150853 | 88 | 213 | 5.0 | 6.0 | 0.00 | 0.00 | 0.00 | 72 | 1003.0 |
| 20260504150351 | 88 | 214 | 5.0 | 6.0 | 0.00 | 0.00 | 0.00 | 71 | 1003.0 |
| 20260504140852 | 87 | 214 | 6.0 | 9.0 | 0.00 | 0.00 | 0.00 | 71 | 1001.0 |
| 20260504140353 | 87 | 145 | 8.0 | 8.0 | 0.00 | 0.00 | 0.00 | 71 | 1001.0 |
| 20260504130351 | 88 | 167 | 7.0 | 9.0 | 0.00 | 0.00 | 0.00 | 70 | 1001.0 |
| 20260504110351 | 94 | 153 | 4.0 | 6.0 | 0.00 | 0.00 | 0.00 | 60 | 999.0 |
| 20260504100352 | 97 | 122 | 1.0 | 3.0 | 0.00 | 0.00 | 0.00 | 51 | 999.0 |
| 20260504081851 | 99 | 239 | 4.0 | 5.0 | 0.00 | 0.00 | 0.00 | 46 | 1001.0 |
| 20260504081351 | 98 | 123 | 1.0 | 1.0 | 0.00 | 0.00 | 0.00 | 48 | 1001.0 |
| 20260504080851 | 99 | 299 | 4.0 | 5.0 | 0.00 | 0.00 | 0.00 | 47 | 1001.0 |
| 20260504080351 | 98 | 179 | 4.0 | 5.0 | 0.00 | 0.00 | 0.00 | 49 | 1001.0 |
| 20260504070350 | 96 | 230 | 4.0 | 5.0 | 0.00 | 0.00 | 0.00 | 53 | 1002.0 |
| 20260504050350 | 91 | 195 | 5.0 | 7.0 | 0.00 | 0.00 | 0.00 | 58 | 1004.0 |
| 20260504045851 | 91 | 138 | 9.0 | 13.0 | 0.00 | 0.00 | 0.00 | 58 | 1004.0 |
| 20260504045350 | 91 | 222 | 4.0 | 6.0 | 0.00 | 0.00 | 0.00 | 58 | 1004.0 |
| 20260504044851 | 90 | 165 | 3.0 | 3.0 | 0.00 | 0.00 | 0.00 | 59 | 1004.0 |
| 20260504044352 | 89 | 215 | 5.0 | 6.0 | 0.00 | 0.00 | 0.00 | 60 | 1004.0 |
| 20260504043850 | 89 | 134 | 4.0 | 6.0 | 0.00 | 0.00 | 0.00 | 60 | 1004.0 |
| 20260504043351 | 88 | 176 | 5.0 | 6.0 | 0.00 | 0.00 | 0.00 | 62 | 1004.0 |
| 20260504042850 | 88 | 234 | 6.0 | 7.0 | 0.00 | 0.00 | 0.00 | 64 | 1004.0 |
| 20260504042353 | 88 | 151 | 7.0 | 8.0 | 0.00 | 0.00 | 0.00 | 64 | 1004.0 |
| 20260504041851 | 88 | 204 | 5.0 | 9.0 | 0.00 | 0.00 | 0.00 | 64 | 1004.0 |
| 20260504041351 | 87 | 175 | 6.0 | 7.0 | 0.00 | 0.00 | 0.00 | 65 | 1005.0 |
| 20260504040851 | 87 | 209 | 7.0 | 8.0 | 0.00 | 0.00 | 0.00 | 65 | 1004.0 |
| 20260504040350 | 87 | 157 | 10.0 | 13.0 | 0.00 | 0.00 | 0.00 | 66 | 1004.0 |
| 20260504035850 | 87 | 176 | 5.0 | 7.0 | 0.00 | 0.00 | 0.00 | 67 | 1004.0 |
| 20260504035350 | 86 | 185 | 9.0 | 14.0 | 0.00 | 0.00 | 0.00 | 68 | 1004.0 |
| 20260504034851 | 86 | 159 | 8.0 | 10.0 | 0.00 | 0.00 | 0.00 | 69 | 1004.0 |
| 20260504034351 | 87 | 206 | 8.0 | 10.0 | 0.00 | 0.00 | 0.00 | 70 | 1004.0 |
| 20260504033850 | 87 | 192 | 6.0 | 8.0 | 0.00 | 0.00 | 0.00 | 70 | 1004.0 |
| 20260504033350 | 87 | 146 | 7.0 | 9.0 | 0.00 | 0.00 | 0.00 | 70 | 1005.0 |
| 20260504032851 | 87 | 155 | 5.0 | 7.0 | 0.00 | 0.00 | 0.00 | 70 | 1005.0 |
| 20260504032351 | 87 | 119 | 2.0 | 2.0 | 0.00 | 0.00 | 0.00 | 70 | 1004.0 |
| 20260504031852 | 87 | 138 | 2.0 | 3.0 | 0.00 | 0.00 | 0.00 | 70 | 1004.0 |
| 20260504031351 | 87 | 180 | 3.0 | 3.0 | 0.00 | 0.00 | 0.00 | 70 | 1004.0 |
| 20260504030853 | 87 | 143 | 3.0 | 3.0 | 0.00 | 0.00 | 0.00 | 70 | 1004.0 |
| 20260504030351 | 87 | 157 | 3.0 | 5.0 | 0.00 | 0.00 | 0.00 | 70 | 1004.0 |
| 20260504025851 | 86 | 51 | 2.0 | 2.0 | 0.00 | 0.00 | 0.00 | 70 | 1004.0 |
| 20260504025350 | 86 | 151 | 3.0 | 3.0 | 0.00 | 0.00 | 0.00 | 70 | 1004.0 |
| 20260504024851 | 86 | 120 | 3.0 | 3.0 | 0.00 | 0.00 | 0.00 | 69 | 1004.0 |
| 20260504024351 | 86 | 130 | 6.0 | 7.0 | 0.00 | 0.00 | 0.00 | 69 | 1004.0 |
| 20260504023850 | 87 | 90 | 1.0 | 1.0 | 0.00 | 0.00 | 0.00 | 69 | 1004.0 |
| 20260504023351 | 86 | 182 | 1.0 | 1.0 | 0.00 | 0.00 | 0.00 | 69 | 1003.0 |
| 20260504022851 | 86 | 129 | 1.0 | 1.0 | 0.00 | 0.00 | 0.00 | 69 | 1003.0 |
| 20260504022350 | 86 | 198 | 4.0 | 5.0 | 0.00 | 0.00 | 0.00 | 69 | 1003.0 |
| 20260504021850 | 86 | 128 | 3.0 | 3.0 | 0.00 | 0.00 | 0.00 | 70 | 1003.0 |
| 20260504021351 | 86 | 142 | 3.0 | 5.0 | 0.00 | 0.00 | 0.00 | 71 | 1003.0 |
| 20260504020851 | 85 | 167 | 3.0 | 3.0 | 0.00 | 0.00 | 0.00 | 71 | 1003.0 |
| 20260504020350 | 85 | 181 | 4.0 | 5.0 | 0.00 | 0.00 | 0.00 | 71 | 1003.0 |
| 20260504015851 | 85 | 120 | 3.0 | 3.0 | 0.00 | 0.00 | 0.00 | 72 | 1003.0 |
| 20260504015351 | 85 | 224 | 2.0 | 3.0 | 0.00 | 0.00 | 0.00 | 72 | 1003.0 |
| 20260504014850 | 85 | 129 | 3.0 | 3.0 | 0.00 | 0.00 | 0.00 | 72 | 1003.0 |
| 20260504014350 | 84 | 168 | 4.0 | 5.0 | 0.00 | 0.00 | 0.00 | 72 | 1002.0 |